Погода в Новых Ичалки

Россия / Республика Мордовия     54°43′37″N   45°24′26″E
темп.,
°C
ветер,
м/с
пор.,
м/с
влажн.,
%
обл.,
%
осадки,
мм/ч
давл.,
гПа
погр.,
м
16 мая, вс
вс1600:00+17ююз22745 0.0 101419
03:00+15ю227833 0.0 101512
06:00+17ююз127855 0.0 101581
09:00+21ююз2370100 0.0 1016469
12:00+25ююз4560100 0.0 10161185
15:00+26ююз475410 0.5 10151746
18:00+23юз2667100 0.3 1015306
21:00+18юз118299 0.3 101611
17 мая, пн
пн1700:00+17зюз118495 0.0 101611
03:00+15в119064 0.0 101711
06:00+18всв117885 0.0 101756
09:00+23в225914 0.0 1017422
12:00+27ююв244551 0.0 1017950
15:00+28ю473967 0.0 10171853
18:00+25ю245693 0.0 101679
21:00+19юв226165 0.0 101711
18 мая, вт
вт1800:00+18вюв225496 0.0 101711
03:00+16вюв2258100 0.0 101712
06:00+18в236299 0.0 101762
09:00+24юв4744100 0.0 1016398
12:00+27юв5738100 0.0 1016960
15:00+28ююв47395 0.0 10151384
18:00+25вюв38567 0.0 1014291
21:00+19вюв366250 0.0 101486
19 мая, ср
ср1900:00+18вюв4136455 0.0 1014205
03:00+17вюв4145865 0.0 1014245
06:00+19юв4155853 0.0 1014349
09:00+25юв61447100 0.0 1013762
12:00+28юв712415 0.0 10121895
15:00+28ююв61142100 0.0 10122361
18:00+22ссв116817 0.0 101136
21:00+18в238295 0.6 101154
20 мая, чт
чт2000:00+17ю118566 0.1 101211
03:00+16ююв118866 0.1 101111
06:00+16ююв4118597 0.4 1010445
09:00+20ююз5869100 0.5 1010782
12:00+15зюз71191100 2.3 1013733
15:00+18зюз796111 2.6 10151312
18:00+17юз5968100 0.1 10161182
21:00+13зюз3779100 0.1 1018140